Regional Weather Roundup
Issued by NWS Albany, NY

Home | Current Version | Previous Version | Graphics & Text | Print | Product List | Glossary On
Versions: 1 2 3 4 5 6 7 8 9 10 11 12 13 14 15 16 17 18 19 20 21 22 23 24 25 26 27 28 29 30 31 32 33 34 35 36 37 38 39 40 41 42 43
000
ASUS41 KALY 212010
RWRALY

NEW YORK STATE HOURLY WEATHER ROUNDUP
NATIONAL WEATHER SERVICE ALBANY NY
300 PM EST SUN DEC 21 2014

NOTE: "FAIR" INDICATES FEW OR NO CLOUDS BELOW 12,000 FEET WITH NO
SIGNIFICANT WEATHER AND/OR NO OBSTRUCTIONS TO VISIBILITY.

NYZ032-033-038>043-046>054-057>066-NYZ062>081-212100-
EAST


CITY           SKY/WX    TMP DP  RH WIND       PRES   REMARKS
ALBANY         CLOUDY    31  23  72 CALM      30.33R
GLENS FALLS    CLOUDY    28  22  78 E5        30.32S WCI  23
POUGHKEEPSIE   CLOUDY    33  27  78 N5        30.30S WCI  29
NEWBURGH       CLOUDY    32  28  86 VRB6      30.29S FOG     WCI  26
MONTGOMERY     CLOUDY    33  27  78 N5        30.28S WCI  29
WHITE PLAINS   CLOUDY    34  29  82 NW7       30.26S WCI  28
ISLIP          CLOUDY    36  31  82 N7        30.25S WCI  30
NEW YORK CITY  PTSUNNY   35  29  78 N8        30.29R WCI  29
CENTRAL PARK   CLOUDY    35  26  69 W3        30.30S
$$

NYZ005>009-017-018-044>046-055-056-212100-
CENTRAL


CITY           SKY/WX    TMP DP  RH WIND       PRES   REMARKS
FULTON         CLOUDY    31  24  75 CALM      30.29S
SYRACUSE       LGT SNOW  31  26  82 CALM      30.30S
ROME           CLOUDY    32  21  64 CALM      30.31F
ELMIRA         CLOUDY    32  23  69 SW5       30.27S WCI  27
BINGHAMTON     CLOUDY    27  20  75 CALM      30.23S
MONTICELLO     CLOUDY    30  23  74 W7        30.24S WCI  23
$$

NYZ026>034-041>043-212100-
NORTH


CITY           SKY/WX    TMP DP  RH WIND       PRES   REMARKS
WATERTOWN      CLOUDY    35  23  61 SW3       30.30R
FORT DRUM      NOT AVBL
MASSENA        CLOUDY    22  16  78 NE8       30.35S WCI  12
SARANAC LAKE   CLOUDY    24  19  81 CALM      30.21F
PLATTSBURGH    CLOUDY    21  18  88 N7        30.35S FOG     WCI  12
$$

NYZ001>004-010>016-019>021-212100-
WEST


CITY           SKY/WX    TMP DP  RH WIND       PRES   REMARKS
NIAGARA FALLS  PTSUNNY   33  23  66 W3        30.27S
BUFFALO        CLOUDY    33  21  61 W7        30.27S WCI  27
DUNKIRK        CLOUDY    32  22  66 CALM      30.28F
JAMESTOWN      CLOUDY    27  19  74 CALM      30.22F
WELLSVILLE     CLOUDY    26  22  84 CALM      30.22R
ROCHESTER      PTSUNNY   35  22  58 W7        30.28S WCI  29
PENN YAN       CLOUDY    33  21  61 NW5       30.27S WCI  29
$$

             KEY
       WCI = WIND CHILL INDEX
       VSB = VISIBILITY
       HX  = HEAT INDEX
$$


USA.gov is the U.S. government's official web portal to all federal, state and local government web resources and services.